CZ-6A DEB, 61281

Orbit data source: Space-Track

CZ-6A DEB, 61281 is space debris in LEO originally from a launch on Tue, 06 Aug 2024 UTC launched from the Taiyaun Space Center, China (TSC). Debris objects in space refer to the collection of defunct objects orbiting the Earth. Examples of debris include non-operational satellites, rocket bodies, and fragments generated from explosions, collisions, or faulty payload assembly.

Loading next visibility...
Identifier
61281, 2024-140SS
Orbit
LEO
Country
Flag of CNCN / PRC
Related business
Manufacturer
SAST
Mission
Spacecraft
Bus & Motor
Unknown
Mass
Unknown
Launch date (UTC)
2024-08-06 (2 years ago)
Launch vehicle
Unknown
Launch site
Taiyaun Space Center, China (TSC)
Object type
Payload
Rocket body
Debris
Shape & HBR
Unknown shape, 0.1 m
Radar Cross Section
Medium (>0.1 m² and <1 m²)

Expand to show TLE details & history
Last TLE update: 17 hours ago

TLE from 17 hours ago
0 CZ-6A DEB
1 61281U 24140SS  26171.26067700  .00000481  00000-0  14291-3 0  9997
2 61281  89.0429 275.1751 0064673 332.9105  26.8726 14.40558629 95255
Epoch: 2026-06-20T06:15Z
TLE epoch observation values (Epoch: 2026-06-20T06:15:22.492Z)
Latitude
-0.00003°
Longitude
-87.14646°
Altitude
718.629 km
Speed
7.518 km/s
True Right ascension
18h 20m 42s
True Declination
0° 00' 00"
Sunlit
Object was in full shadow at epoch
Visualization orbit readout
Latitude
Unknown
Longitude
Unknown
Altitude
Unknown
Speed
Unknown
Apparent Right ascension
Unknown
Apparent Declination
Unknown
Sunlit
N/A
Visualization observer readout
Local Sidereal Time
10:18:50
Azimuth
Unknown
Elevation
Unknown
Doppler factor
Unknown
Orbital elements
Apogee altitude
799.698 km
Perigee altitude
707.452 km
Semi-major axis
7,131.712 km
Eccentricity
0.00647
Inclination
89.0429°
RAAN
275.1751°
Arg. of periapsis
332.9105°
True anomaly
27.21001°
Mean anomaly
26.8726°
Eccentric anomaly
27.04106°
Mean motion
3.60373 °/min
Orbital period
99.9 mins
BSTAR
0.00014291
Loading maneuver chart data...
Computing Atmospheric mass density...
Loading historical data...
Loading historical data...
Loading historical data...
Loading historical data...
Loading historical data...
Loading historical data...
Loading historical data...

Documentation

Showing up to 5 results
|